Wind_Speed
25 28 30 30 27 24 24 20 20 20 20 22 26 25 21 18 15 14 14 15 16 17 19 20 19 21 22 25 27 29 29 30 31 29 31 28 28 31 32 31 34 36 35
28 28 29 33 28 25 26 23 23 21 20 21 24 23 18 15 14 15 16 17 17 18 20 22 22 25 27 27 29 30 29 30 33 31 31 31 32 31 34 34 33 37 40
33 33 33 37 22 22 23 24 23 19 18 21 22 21 15 12 12 16 15 16 17 18 18 20 23 23 24 27 30 30 29 30 33 35 35 35 36 32 35 37 42 43 42
31 37 36 31 24 23 21 24 23 18 19 20 19 19 15 13 16 17 18 17 18 21 21 21 21 25 27 29 33 31 30 31 33 34 36 38 40 37 39 45 48 47 40
31 39 37 30 28 25 24 20 22 17 21 16 18 18 17 15 19 19 22 21 22 22 22 22 23 25 29 34 34 32 31 29 30 33 36 37 39 42 43 50 53 52 43
27 34 45 39 32 26 26 18 20 20 17 13 15 17 17 17 20 21 25 26 25 26 25 25 25 29 30 31 31 30 29 29 31 35 38 39 38 41 45 51 57 55 50
31 37 40 45 30 25 32 24 23 18 13 12 15 16 17 18 21 24 27 29 29 26 29 31 30 30 34 33 23 24 28 30 32 37 39 38 40 40 48 54 59 55 54
34 39 42 46 26 28 21 18 18 16 18 12 16 18 21 24 31 29 24 27 28 26 29 31 33 35 39 38 28 27 28 30 33 35 37 38 40 42 48 55 60 53 55
28 30 36 29 24 28 19 19 16 12 15 17 19 20 25 27 28 28 25 31 32 28 30 27 31 38 36 29 26 28 32 33 33 32 34 38 37 38 45 56 54 49 53
23 25 27 28 30 24 18 17 19 18 24 27 21 25 28 31 28 32 28 28 33 30 28 27 31 36 30 27 27 31 34 33 30 29 32 30 29 38 43 46 46 47 48
22 25 28 30 28 26 29 28 29 25 18 31 25 28 33 26 30 32 33 32 30 27 27 30 34 31 30 27 29 31 32 29 28 31 31 27 29 36 50 40 38 40 35
25 26 27 29 27 32 32 34 36 33 26 17 28 33 27 29 30 31 31 29 27 28 29 31 29 26 23 24 25 25 26 27 29 29 28 27 31 36 48 43 38 24 24
25 26 25 26 28 29 30 31 31 41 28 20 27 28 27 28 31 30 28 27 27 27 30 30 26 21 23 25 26 25 25 26 27 25 26 25 29 36 45 40 39 23 13
24 22 22 21 26 29 22 9 21 24 19 16 21 25 26 29 29 28 28 29 29 28 28 27 18 20 23 23 23 23 25 25 23 23 24 24 27 32 41 40 44 19 11
21 24 27 22 11 19 16 16 17 18 16 21 23 26 28 29 30 30 32 30 29 28 25 16 17 20 22 22 21 21 23 22 22 22 21 22 23 30 33 40 38 28 7
20 16 19 22 16 9 16 16 18 15 17 22 25 27 29 31 33 33 29 28 26 24 20 15 17 18 18 20 20 20 21 22 22 21 22 21 25 25 28 33 33 31 21
26 32 29 19 17 14 16 20 17 16 22 25 27 28 30 31 29 28 25 21 21 22 14 14 16 17 19 21 22 22 21 22 22 19 18 19 20 22 22 25 27 35 24
18 16 20 15 13 13 15 18 17 20 22 23 20 21 23 25 25 20 18 17 19 17 13 14 16 18 19 20 21 21 20 19 19 19 18 19 19 18 19 17 22 26 33
16 19 18 19 15 12 16 17 17 20 22 19 22 23 21 19 19 19 18 17 18 16 14 17 19 22 21 22 21 20 18 17 16 17 16 16 15 15 15 13 16 20 21
20 18 15 19 19 14 15 17 17 19 18 23 23 17 15 15 16 18 18 17 17 18 18 18 20 22 22 20 19 18 17 16 15 14 14 14 14 12 12 12 12 12 19
20 16 21 20 16 13 15 16 17 17 20 22 17 15 17 19 19 19 17 16 16 17 18 18 19 19 19 18 17 14 13 11 10 10 10 11 12 12 12 11 10 11 13
20 21 24 22 18 18 18 19 18 18 17 16 15 14 21 19 18 17 16 17 17 16 17 17 16 16 15 13 11 10 8 8 8 7 9 10 10 12 13 13 11 9 9
25 28 27 21 22 24 22 22 22 21 17 19 20 19 20 22 15 15 15 17 17 16 14 14 13 11 10 8 7 7 7 8 8 9 9 9 9 10 10 11 12 12 10
26 24 22 23 23 24 23 24 24 21 19 21 24 22 21 19 19 18 16 17 16 14 14 12 10 9 7 6 5 7 8 9 9 10 11 10 10 9 9 9 10 11 12
21 21 20 22 22 23 22 23 23 21 21 22 23 22 21 21 21 17 16 15 15 14 13 10 9 8 7 7 7 7 8 9 10 11 11 11 10 9 8 8 8 8 8
22 23 23 20 19 20 20 21 22 22 21 20 19 19 19 21 19 16 15 13 15 14 12 11 10 9 9 10 10 9 9 9 9 10 11 11 9 7 6 6 6 7 7
Wind_Direction
254 255 255 261 272 271 272 279 293 309 323 331 331 330 327 320 315 314 316 316 314 307 304 301 298 295 296 297 298 299 299 297 294 292 291 291 289 292 291 287 287 280 280
260 261 260 259 266 273 267 271 285 301 313 324 324 322 318 314 311 306 305 307 311 309 301 299 297 296 298 297 298 298 299 297 296 295 293 293 297 300 297 295 296 290 283
265 261 259 256 266 277 271 265 278 295 307 314 318 316 314 310 314 318 317 318 315 312 300 298 300 299 299 298 296 295 296 295 296 297 296 298 299 302 298 304 302 300 289
265 262 261 264 265 273 264 260 271 286 299 308 310 308 304 311 315 323 324 316 310 310 300 304 303 303 307 299 293 296 295 294 292 293 296 299 302 303 300 305 303 302 287
269 262 262 256 253 264 270 265 262 280 293 294 301 306 308 311 321 323 327 310 301 310 304 300 304 308 309 301 291 290 295 296 294 295 299 302 302 302 302 306 305 299 287
278 268 259 258 257 263 269 265 247 273 278 285 301 307 304 314 316 318 321 310 309 307 300 295 297 306 317 313 299 287 288 294 300 302 301 302 305 307 306 313 313 303 296
270 275 266 258 251 264 275 236 273 257 280 289 300 296 295 292 300 304 309 310 310 303 303 296 298 298 317 316 307 292 293 297 299 302 301 305 306 314 312 312 314 310 304
260 264 273 256 270 286 274 236 239 258 275 285 289 295 302 287 306 305 297 308 302 299 303 300 297 305 305 304 294 291 296 299 299 298 304 308 309 312 314 310 313 306 298
258 265 277 264 277 283 268 226 243 261 275 278 276 293 298 290 302 327 305 302 299 299 303 295 296 311 309 298 287 286 295 300 298 300 306 308 308 312 312 311 310 303 295
256 259 253 255 254 254 213 226 249 266 258 262 278 297 301 291 300 308 309 300 298 300 303 292 293 310 308 300 289 292 297 300 295 303 307 305 311 318 318 316 319 303 294
254 248 245 248 250 247 211 221 233 240 263 265 276 297 295 285 301 302 299 300 298 300 298 286 298 303 301 303 296 296 296 296 302 311 313 317 318 325 330 322 326 297 284
260 255 252 263 267 232 218 227 240 269 250 296 296 288 292 293 294 299 297 297 300 302 301 299 301 298 303 298 294 294 296 304 311 315 318 321 320 325 329 332 334 292 287
264 261 259 269 261 237 239 248 269 285 293 253 278 282 289 289 294 298 299 298 301 302 310 306 298 290 298 298 294 295 302 309 312 317 322 323 328 331 335 342 353 317 297
268 266 272 259 242 252 270 287 286 286 275 268 281 290 288 291 298 301 301 299 300 302 306 305 297 297 300 300 299 300 304 309 316 322 324 325 332 334 340 351 5 345 298
255 265 268 266 261 304 307 299 252 262 276 281 284 286 287 294 300 301 298 296 298 297 299 291 290 299 301 303 307 309 310 317 320 316 317 322 330 335 347 350 8 18 337
272 295 299 297 291 291 268 246 247 258 274 277 280 287 293 294 290 289 290 294 296 296 293 278 293 298 304 311 315 315 316 317 314 308 309 316 325 332 337 358 3 19 36
309 295 296 287 258 235 241 254 261 267 270 271 278 280 281 282 280 285 289 292 298 305 291 287 296 302 309 313 314 312 311 311 313 313 308 321 331 334 340 354 13 16 30
323 331 329 285 246 251 261 260 263 265 267 278 285 284 282 280 283 288 291 298 303 306 274 283 298 308 310 311 311 311 311 311 315 320 321 323 330 334 340 347 357 6 16
312 321 320 279 257 264 269 266 271 267 281 285 295 290 282 282 286 293 294 299 302 306 286 274 292 303 306 309 312 311 312 313 317 321 323 329 338 338 344 347 358 13 15
314 310 288 269 271 275 253 261 269 269 278 294 295 285 282 287 295 299 299 298 295 292 290 287 289 294 301 308 309 309 311 314 321 327 332 339 343 345 344 348 351 2 13
307 292 306 281 271 273 263 271 276 274 289 291 284 283 283 291 293 293 291 292 291 287 286 286 288 292 299 303 305 307 310 317 329 336 347 354 355 354 352 349 354 353 3
281 285 297 294 288 283 277 277 276 286 295 289 297 294 291 298 283 288 289 288 287 286 287 287 288 291 295 297 299 305 310 321 335 347 354 0 1 5 5 3 3 358 358
270 276 291 286 288 286 284 286 291 298 291 291 290 290 288 299 304 293 292 287 286 284 282 281 284 286 286 289 295 302 311 319 329 337 341 345 353 358 3 6 11 16 12
271 281 286 286 277 275 277 281 284 287 286 284 285 288 288 290 295 294 291 285 284 277 273 274 274 271 272 279 291 301 310 316 319 322 325 330 338 342 349 360 9 17 25
277 280 281 280 273 271 273 278 282 283 285 284 285 287 287 293 298 294 290 282 276 268 263 257 255 253 265 283 291 295 298 304 309 312 315 319 327 331 336 344 351 2 12
279 279 278 279 285 284 283 286 286 285 281 278 281 282 289 296 290 283 280 273 269 261 253 247 241 247 266 278 286 293 298 299 302 306 309 313 319 327 332 339 346 354 0
Height
3170 3171 3172 3173 3173 3173 3173 3172 3172 3170 3167 3165 3164 3160 3157 3155 3152 3150 3148 3146 3144 3141 3139 3137 3137 3134 3131 3129 3126 3122 3120 3116 3113 3112 3108 3108 3106 3103 3101 3099 3095 3093 3092
3165 3166 3166 3167 3167 3167 3168 3168 3167 3165 3163 3161 3159 3157 3155 3152 3149 3147 3144 3141 3139 3137 3134 3132 3131 3128 3126 3123 3119 3116 3113 3110 3105 3103 3100 3098 3096 3094 3090 3087 3086 3084 3080
3158 3159 3160 3159 3160 3161 3161 3161 3161 3160 3158 3157 3155 3152 3150 3147 3145 3142 3139 3137 3134 3132 3130 3128 3125 3122 3120 3118 3115 3110 3107 3103 3098 3094 3091 3090 3086 3084 3079 3077 3073 3070 3067
3151 3150 3151 3152 3153 3154 3153 3155 3156 3155 3153 3152 3150 3147 3145 3143 3140 3137 3135 3132 3130 3128 3125 3123 3120 3117 3114 3110 3108 3105 3100 3096 3092 3088 3085 3081 3077 3075 3070 3063 3058 3054 3050
3142 3141 3142 3146 3146 3147 3146 3148 3151 3149 3149 3146 3145 3142 3140 3138 3135 3133 3131 3130 3127 3123 3120 3117 3114 3111 3107 3103 3099 3098 3094 3089 3085 3081 3078 3074 3070 3065 3058 3051 3044 3037 3036
3133 3132 3133 3136 3137 3143 3141 3138 3142 3144 3143 3140 3139 3137 3134 3132 3131 3129 3127 3124 3121 3117 3114 3110 3107 3105 3100 3094 3090 3089 3087 3082 3078 3073 3070 3065 3061 3055 3048 3039 3031 3022 3013
3126 3124 3126 3128 3130 3132 3132 3131 3132 3137 3137 3135 3133 3131 3130 3127 3124 3123 3120 3116 3114 3111 3107 3103 3101 3098 3093 3090 3086 3082 3080 3076 3071 3065 3059 3056 3049 3046 3037 3028 3020 3011 3002
3119 3116 3119 3098 3120 3127 3122 3125 3130 3131 3132 3128 3127 3126 3124 3121 3119 3115 3110 3111 3107 3103 3099 3096 3092 3089 3086 3081 3079 3077 3074 3070 3065 3059 3052 3048 3042 3037 3029 3019 3007 2997 2988
3111 3111 3112 3111 3117 3119 3118 3121 3124 3123 3125 3123 3120 3118 3117 3114 3112 3108 3103 3102 3099 3095 3091 3088 3084 3079 3076 3071 3070 3068 3066 3063 3058 3053 3047 3041 3034 3029 3022 3008 2997 2985 2973
3106 3105 3107 3109 3110 3110 3114 3117 3119 3118 3115 3115 3114 3112 3109 3108 3105 3101 3098 3094 3091 3087 3084 3081 3075 3072 3068 3066 3063 3059 3057 3054 3051 3047 3041 3035 3029 3024 3014 3001 2987 2972 2963
3098 3098 3099 3100 3101 3103 3103 3105 3104 3103 3103 3104 3108 3106 3103 3100 3099 3096 3092 3087 3083 3078 3076 3075 3069 3064 3063 3060 3057 3053 3049 3046 3043 3037 3031 3025 3020 3013 3004 2992 2978 2963 2954
3093 3093 3094 3094 3096 3095 3096 3097 3096 3090 3084 3096 3097 3095 3094 3091 3089 3087 3084 3079 3075 3071 3069 3067 3061 3058 3056 3054 3050 3046 3043 3039 3034 3029 3024 3018 3012 3004 2996 2982 2965 2953 2948
3086 3087 3089 3089 3090 3091 3092 3095 3096 3094 3089 3085 3087 3086 3084 3081 3079 3076 3074 3071 3067 3064 3062 3058 3053 3051 3050 3048 3044 3041 3037 3033 3028 3023 3018 3013 3007 2998 2990 2976 2960 2950 2945
3081 3082 3083 3084 3085 3087 3084 3084 3089 3086 3082 3077 3077 3077 3075 3071 3069 3068 3066 3063 3060 3057 3055 3052 3047 3046 3045 3043 3039 3035 3031 3027 3022 3017 3013 3008 3003 2995 2987 2973 2958 2948 2944
3069 3074 3076 3076 3075 3075 3079 3075 3077 3077 3074 3072 3070 3069 3067 3064 3062 3059 3058 3056 3054 3051 3049 3045 3044 3043 3041 3037 3033 3029 3026 3021 3017 3013 3009 3005 2999 2993 2985 2974 2962 2952 2944
3064 3065 3069 3069 3069 3067 3074 3073 3071 3069 3067 3066 3064 3061 3058 3057 3057 3055 3052 3049 3047 3043 3040 3039 3039 3037 3035 3032 3028 3024 3020 3017 3014 3010 3005 3000 2996 2990 2985 2978 2965 2957 2947
3060 3060 3060 3061 3061 3064 3064 3066 3063 3062 3061 3060 3058 3056 3055 3053 3050 3048 3044 3041 3039 3036 3035 3034 3033 3031 3029 3026 3023 3019 3016 3013 3010 3006 3002 2997 2993 2988 2984 2978 2971 2963 2952
3055 3056 3055 3055 3057 3058 3058 3058 3057 3055 3055 3052 3049 3047 3046 3043 3041 3040 3038 3036 3033 3031 3030 3030 3028 3026 3024 3021 3018 3015 3012 3009 3006 3003 2999 2994 2990 2986 2982 2979 2974 2968 2961
3051 3052 3051 3051 3052 3051 3052 3050 3049 3048 3046 3045 3042 3040 3039 3036 3035 3033 3031 3030 3029 3027 3026 3025 3023 3021 3018 3016 3014 3011 3008 3006 3003 3000 2996 2992 2988 2985 2982 2979 2976 2972 2966
3046 3044 3044 3045 3045 3044 3043 3043 3042 3041 3040 3038 3036 3034 3032 3031 3029 3027 3025 3024 3023 3022 3021 3019 3017 3015 3013 3011 3009 3007 3005 3002 3000 2997 2993 2990 2986 2984 2981 2978 2977 2974 2970
3040 3040 3038 3038 3037 3037 3037 3037 3036 3035 3033 3032 3029 3026 3026 3024 3023 3022 3020 3020 3019 3017 3015 3013 3011 3010 3009 3007 3005 3003 3002 3000 2997 2995 2992 2989 2986 2983 2980 2978 2976 2973 2971
3035 3034 3033 3032 3030 3030 3030 3029 3028 3027 3026 3025 3023 3021 3019 3017 3015 3016 3016 3015 3013 3011 3009 3008 3006 3006 3004 3003 3002 3001 3000 2998 2996 2994 2991 2989 2987 2984 2981 2978 2976 2974 2972
3028 3027 3026 3024 3023 3022 3021 3020 3019 3018 3018 3016 3017 3016 3015 3012 3011 3010 3011 3009 3007 3006 3005 3004 3003 3002 3001 3001 3000 2999 2997 2996 2994 2992 2991 2989 2987 2985 2982 2980 2977 2975 2973
3020 3020 3019 3018 3017 3017 3016 3015 3014 3013 3013 3013 3011 3010 3009 3007 3007 3005 3004 3003 3002 3001 3000 3000 3000 2999 2999 2999 2998 2997 2995 2993 2992 2991 2989 2987 2986 2984 2982 2981 2979 2976 2975
3013 3013 3012 3011 3012 3011 3010 3009 3009 3008 3008 3006 3005 3004 3003 3002 3000 2999 2998 2998 2996 2996 2996 2996 2996 2996 2996 2996 2996 2995 2993 2992 2990 2989 2987 2986 2985 2983 2982 2980 2978 2977 2976
3007 3006 3005 3004 3005 3005 3004 3003 3002 3002 3001 3000 2999 2998 2997 2995 2994 2993 2993 2993 2992 2991 2992 2992 2993 2993 2994 2994 2993 2992 2991 2990 2988 2987 2985 2984 2984 2983 2982 2980 2979 2977 2976